• In Netherlands
  • List of Countries
  • For 7 days
  • Water Temperature
  • Satellite Maps
  • Weather Map
  • Weather Widgets
  • user-avatar
    Login

    Hourly Weather Darwin

    Today, 20 January, Saturday

    Time Temperature Precipitation Wind Pressure Humidity
    00:00 +28°C° 0.8 mm 1 mps 753 mmHg 90%
    01:00 +28°C° 0.2 mm 1 mps 753 mmHg 90%
    02:00 +28°C° 0.2 mm 1 mps 753 mmHg 90%
    03:00 +27°C° 0 mm 1 mps 752 mmHg 90%
    04:00 +27°C° 0.1 mm 1 mps 753 mmHg 90%
    05:00 +27°C° 0.1 mm 1 mps 753 mmHg 91%
    06:00 +27°C° 0.1 mm 1 mps 753 mmHg 91%
    07:00 +29°C° 1.7 mm 1 mps 753 mmHg 86%
    08:00 +30°C° 1.7 mm 1 mps 753 mmHg 81%
    09:00 +31°C° 0 mm 2 mps 754 mmHg 76%
    10:00 +31°C° 1.2 mm 2 mps 753 mmHg 74%
    11:00 +32°C° 1.2 mm 2 mps 753 mmHg 72%
    12:00 +32°C° 1.2 mm 2 mps 753 mmHg 70%
    13:00 +34°C° 0.6 mm 3 mps 752 mmHg 69%
    14:00 +34°C° 0.6 mm 3 mps 752 mmHg 68%
    15:00 +34°C° 0.6 mm 4 mps 751 mmHg 67%
    16:00 +33°C° 1.5 mm 4 mps 751 mmHg 71%
    17:00 +33°C° 1.5 mm 4 mps 752 mmHg 75%
    18:00 +32°C° 1.5 mm 4 mps 752 mmHg 79%
    19:00 +30°C° 1.7 mm 4 mps 752 mmHg 81%
    20:00 +30°C° 1.7 mm 3 mps 752 mmHg 83%
    21:00 +29°C° 1.7 mm 3 mps 753 mmHg 85%
    22:00 +29°C° 2.8 mm 3 mps 753 mmHg 86%
    23:00 +29°C° 2.8 mm 3 mps 753 mmHg 87%

    Tomorrow, 21 January, Sunday

    Time Temperature Precipitation Wind Pressure Humidity
    00:00 +29°C° 2.8 mm 3 mps 753 mmHg 87%
    01:00 +28°C° 3.2 mm 3 mps 752 mmHg 88%
    02:00 +28°C° 3.2 mm 3 mps 752 mmHg 88%
    03:00 +28°C° 3.2 mm 3 mps 751 mmHg 89%
    04:00 +28°C° 2 mm 3 mps 752 mmHg 89%
    05:00 +28°C° 2 mm 4 mps 752 mmHg 90%
    06:00 +28°C° 2 mm 4 mps 752 mmHg 90%
    07:00 +29°C° 0.2 mm 4 mps 752 mmHg 87%
    08:00 +29°C° 0.2 mm 4 mps 752 mmHg 85%
    09:00 +30°C° 0.2 mm 4 mps 753 mmHg 82%
    10:00 +32°C° 0.4 mm 5 mps 752 mmHg 78%
    11:00 +33°C° 0.4 mm 5 mps 752 mmHg 75%
    12:00 +34°C° 0.4 mm 5 mps 751 mmHg 71%
    13:00 +34°C° 0.8 mm 5 mps 751 mmHg 71%
    14:00 +34°C° 0.8 mm 6 mps 750 mmHg 72%
    15:00 +34°C° 0.8 mm 6 mps 750 mmHg 72%
    16:00 +33°C° 2.1 mm 6 mps 750 mmHg 77%
    17:00 +30°C° 2.1 mm 6 mps 750 mmHg 82%
    18:00 +29°C° 2.1 mm 5 mps 750 mmHg 87%
    19:00 +29°C° 3 mm 5 mps 751 mmHg 88%
    20:00 +29°C° 3 mm 4 mps 751 mmHg 90%
    21:00 +28°C° 3 mm 4 mps 752 mmHg 91%
    22:00 +28°C° 1.9 mm 4 mps 752 mmHg 91%
    23:00 +28°C° 1.9 mm 3 mps 752 mmHg 91%

    Day after tomorrow, 22 January, Monday

    Time Temperature Precipitation Wind Pressure Humidity
    00:00 +28°C° 1.9 mm 3 mps 752 mmHg 91%
    01:00 +28°C° 1.2 mm 4 mps 751 mmHg 91%
    02:00 +28°C° 1.2 mm 5 mps 751 mmHg 90%
    03:00 +28°C° 1.2 mm 5 mps 751 mmHg 89%
    04:00 +28°C° 0.6 mm 5 mps 751 mmHg 89%
    05:00 +28°C° 0.6 mm 5 mps 751 mmHg 89%
    06:00 +28°C° 0.6 mm 5 mps 751 mmHg 88%
    07:00 +29°C° 0.4 mm 5 mps 752 mmHg 85%
    08:00 +29°C° 0.4 mm 5 mps 752 mmHg 82%
    09:00 +30°C° 0.4 mm 6 mps 752 mmHg 79%
    10:00 +32°C° 0.8 mm 6 mps 752 mmHg 77%
    11:00 +33°C° 0.8 mm 6 mps 752 mmHg 75%
    12:00 +34°C° 0.8 mm 6 mps 751 mmHg 73%
    13:00 +33°C° 1.2 mm 6 mps 751 mmHg 73%
    14:00 +33°C° 1.2 mm 6 mps 750 mmHg 74%
    15:00 +33°C° 1.2 mm 6 mps 750 mmHg 75%
    16:00 +32°C° 1.2 mm 6 mps 750 mmHg 77%
    17:00 +32°C° 1.2 mm 6 mps 750 mmHg 80%
    18:00 +30°C° 1.2 mm 6 mps 750 mmHg 82%
    19:00 +30°C° 0.7 mm 6 mps 751 mmHg 84%
    20:00 +29°C° 0.7 mm 6 mps 751 mmHg 86%
    21:00 +29°C° 0.7 mm 6 mps 752 mmHg 88%
    22:00 +29°C° 1.5 mm 6 mps 752 mmHg 87%
    23:00 +29°C° 1.5 mm 6 mps 752 mmHg 87%

    23 January, Tuesday

    Time Temperature Precipitation Wind Pressure Humidity
    00:00 +29°C° 1.5 mm 6 mps 752 mmHg 87%
    01:00 +29°C° 1.2 mm 6 mps 751 mmHg 87%
    02:00 +29°C° 1.2 mm 6 mps 751 mmHg 87%
    03:00 +28°C° 1.2 mm 6 mps 750 mmHg 87%
    04:00 +28°C° 1.3 mm 6 mps 750 mmHg 88%
    05:00 +28°C° 1.3 mm 6 mps 751 mmHg 89%
    06:00 +28°C° 1.3 mm 6 mps 751 mmHg 89%
    07:00 +29°C° 1.8 mm 6 mps 751 mmHg 88%
    08:00 +30°C° 1.8 mm 6 mps 752 mmHg 86%
    09:00 +30°C° 1.8 mm 7 mps 752 mmHg 84%
    10:00 +32°C° 1.6 mm 7 mps 752 mmHg 82%
    11:00 +32°C° 1.6 mm 7 mps 751 mmHg 79%
    12:00 +33°C° 1.6 mm 7 mps 751 mmHg 77%
    13:00 +32°C° 1.4 mm 7 mps 751 mmHg 78%
    14:00 +32°C° 1.4 mm 7 mps 750 mmHg 79%
    15:00 +32°C° 1.4 mm 8 mps 750 mmHg 79%
    16:00 +32°C° 1 mm 7 mps 750 mmHg 80%
    17:00 +30°C° 1 mm 7 mps 750 mmHg 80%
    18:00 +30°C° 1 mm 6 mps 750 mmHg 81%
    19:00 +30°C° 0.1 mm 6 mps 751 mmHg 82%
    20:00 +30°C° 0.1 mm 6 mps 751 mmHg 82%
    21:00 +29°C° 0.1 mm 5 mps 751 mmHg 83%
    22:00 +29°C° 1 mm 6 mps 751 mmHg 85%
    23:00 +29°C° 1 mm 6 mps 751 mmHg 86%

    24 January, Wednesday

    Time Temperature Precipitation Wind Pressure Humidity
    00:00 +29°C° 1 mm 6 mps 751 mmHg 88%
    01:00 +29°C° 0.9 mm 6 mps 750 mmHg 88%
    02:00 +29°C° 0.9 mm 7 mps 750 mmHg 88%
    03:00 +29°C° 0.9 mm 7 mps 749 mmHg 89%
    04:00 +29°C° 2.6 mm 7 mps 750 mmHg 89%
    05:00 +29°C° 2.6 mm 8 mps 750 mmHg 89%
    06:00 +29°C° 2.6 mm 8 mps 750 mmHg 88%
    07:00 +29°C° 4.7 mm 7 mps 751 mmHg 88%
    08:00 +29°C° 4.7 mm 7 mps 751 mmHg 87%
    09:00 +29°C° 4.7 mm 7 mps 751 mmHg 87%
    10:00 +29°C° 5.4 mm 7 mps 751 mmHg 87%
    11:00 +29°C° 5.4 mm 7 mps 751 mmHg 87%
    12:00 +29°C° 5.4 mm 7 mps 750 mmHg 87%
    13:00 +30°C° 3.4 mm 7 mps 750 mmHg 86%
    14:00 +30°C° 3.4 mm 7 mps 749 mmHg 84%
    15:00 +30°C° 3.4 mm 7 mps 749 mmHg 83%
    16:00 +30°C° 0.9 mm 7 mps 749 mmHg 84%
    17:00 +30°C° 0.9 mm 6 mps 749 mmHg 85%
    18:00 +30°C° 0.9 mm 6 mps 749 mmHg 85%
    19:00 +29°C° 0.7 mm 6 mps 750 mmHg 86%
    20:00 +29°C° 0.7 mm 6 mps 750 mmHg 86%
    21:00 +29°C° 0.7 mm 5 mps 750 mmHg 87%
    22:00 +29°C° 1.1 mm 6 mps 750 mmHg 87%
    23:00 +29°C° 1.1 mm 6 mps 750 mmHg 87%

    25 January, Thursday

    Time Temperature Precipitation Wind Pressure Humidity
    00:00 +29°C° 1.1 mm 7 mps 750 mmHg 87%
    01:00 +28°C° 1.2 mm 7 mps 750 mmHg 86%
    02:00 +28°C° 1.2 mm 7 mps 749 mmHg 86%
    03:00 +28°C° 1.2 mm 7 mps 749 mmHg 86%
    04:00 +28°C° 1.3 mm 7 mps 749 mmHg 86%
    05:00 +28°C° 1.3 mm 7 mps 749 mmHg 87%
    06:00 +28°C° 1.3 mm 7 mps 750 mmHg 87%
    07:00 +29°C° 1.7 mm 6 mps 750 mmHg 86%
    08:00 +29°C° 1.7 mm 6 mps 750 mmHg 86%
    09:00 +30°C° 1.7 mm 6 mps 751 mmHg 85%
    10:00 +30°C° 0.9 mm 6 mps 750 mmHg 81%
    11:00 +32°C° 0.9 mm 7 mps 750 mmHg 77%
    12:00 +33°C° 0.9 mm 7 mps 750 mmHg 73%
    13:00 +33°C° 1.6 mm 7 mps 749 mmHg 74%
    14:00 +33°C° 1.6 mm 7 mps 749 mmHg 75%
    15:00 +33°C° 1.6 mm 7 mps 749 mmHg 76%
    16:00 +32°C° 0.7 mm 7 mps 749 mmHg 77%
    17:00 +32°C° 0.7 mm 6 mps 749 mmHg 79%
    18:00 +30°C° 0.7 mm 6 mps 749 mmHg 80%
    19:00 +30°C° 1.9 mm 6 mps 750 mmHg 82%
    20:00 +29°C° 1.9 mm 7 mps 750 mmHg 84%
    21:00 +29°C° 1.9 mm 7 mps 751 mmHg 86%
    22:00 +29°C° 0.3 mm 7 mps 750 mmHg 86%
    23:00 +29°C° 0.3 mm 7 mps 750 mmHg 87%
    Show more